Wind_Speed
14 14 13 14 14 14 14 14 14 14 14 14 14 14 14 14 14 14 13 12 12 12 12 12 12 12 12 12 12 13 13 13 12 13 13 12 12 13 13 13 14 14 16 18 18 18 17 16 15 16 17 16 16 17 18 18 19 18 17 17 17 17 15 13 15 12 7 5 7 9 2 2 3 5 2 2 3 2 3 6 8 7 6 6 6 7 7 7
13 13 13 13 13 13 13 13 14 14 14 14 14 14 14 14 14 14 13 12 12 12 12 12 12 12 12 12 12 12 12 12 12 13 12 11 12 12 12 14 15 15 16 17 17 17 17 16 16 17 17 16 16 17 18 19 18 17 17 18 19 17 14 12 14 12 9 8 11 13 9 7 3 3 2 4 3 3 5 8 8 6 5 6 8 9 10 10
12 12 12 13 13 13 13 13 13 14 14 14 14 14 13 14 13 13 13 12 12 12 12 12 12 12 12 11 11 12 11 10 11 11 11 11 12 11 12 13 14 14 16 17 18 18 19 19 20 20 19 17 15 16 18 19 19 17 17 19 18 15 14 13 12 11 8 8 13 14 11 11 6 4 4 6 5 5 7 10 10 8 7 8 9 11 11 11
11 11 12 12 12 12 12 12 12 13 13 13 13 13 13 13 13 13 12 12 11 12 13 12 12 11 11 11 10 10 9 9 10 10 9 10 10 11 11 12 13 13 15 18 18 19 22 22 22 22 22 19 16 17 18 18 18 17 19 19 14 10 13 12 8 8 7 9 13 14 12 11 9 7 6 5 5 8 8 10 12 10 7 7 7 10 11 12
10 10 10 11 11 11 12 12 12 12 12 12 12 12 12 12 12 12 11 11 11 12 12 11 11 11 11 10 10 9 7 6 7 7 7 8 9 9 10 11 12 13 15 18 19 21 23 22 22 23 22 21 19 20 20 17 16 17 18 17 12 9 13 9 4 5 6 11 15 18 19 15 11 10 9 6 7 11 10 10 14 12 8 6 4 8 11 13
9 9 9 9 10 10 10 11 11 11 11 11 11 11 11 11 11 11 11 11 11 11 11 11 11 10 10 9 9 8 6 5 6 6 6 7 8 8 10 11 12 14 16 17 19 21 22 22 23 23 20 20 21 21 20 16 13 14 15 14 11 10 13 9 4 5 8 11 14 17 19 18 15 11 12 13 13 12 11 13 15 12 8 7 7 9 11 12
9 9 9 9 9 9 9 10 10 10 10 10 10 10 10 10 10 10 10 10 10 11 10 10 10 10 9 8 8 7 7 8 8 8 8 8 8 8 9 10 12 14 15 16 18 20 22 23 23 22 20 19 20 19 17 15 12 13 12 10 9 11 15 11 8 12 13 12 13 17 19 17 17 13 13 17 15 13 13 14 14 10 5 7 9 9 9 10
9 9 9 9 9 8 8 9 9 9 9 9 10 10 10 10 10 10 10 10 10 10 10 10 9 9 8 7 7 7 7 8 8 8 8 9 9 9 9 10 12 12 13 15 16 19 21 22 21 20 17 15 15 15 14 13 12 14 11 8 9 10 13 13 14 17 16 16 16 17 18 17 18 16 15 19 16 11 11 10 11 12 8 5 5 7 10 10
9 9 9 9 9 8 8 8 8 9 9 9 9 10 10 9 9 9 9 10 10 10 9 9 9 8 8 7 7 7 6 5 7 8 8 9 10 9 9 10 11 12 13 15 17 18 18 17 16 13 11 8 9 12 11 11 13 14 12 11 13 14 15 15 15 17 18 19 18 18 20 20 19 14 14 18 15 10 9 9 11 12 8 4 6 9 10 10
9 9 9 9 9 8 8 8 9 9 9 9 9 10 10 10 10 9 9 10 10 9 9 9 8 8 7 6 7 7 5 3 5 7 8 8 8 8 8 8 11 13 13 16 17 16 13 13 12 8 9 7 7 8 6 9 11 12 13 13 15 17 18 18 19 19 20 20 17 18 20 17 10 8 12 13 11 11 9 7 9 9 5 5 6 8 10 11
9 9 9 9 8 8 8 8 9 9 9 9 9 10 10 10 9 9 9 9 9 8 8 8 8 7 7 6 6 6 5 2 2 4 5 4 5 6 7 8 10 12 14 16 16 15 14 15 12 6 7 6 7 8 8 10 11 13 15 16 15 14 15 18 21 20 18 18 15 15 16 12 8 9 15 13 11 12 9 10 8 7 6 6 6 8 10 12
9 9 9 8 8 8 8 8 8 9 10 10 10 10 10 10 10 10 9 9 9 8 8 8 7 7 6 5 5 6 6 2 2 2 2 2 3 5 7 9 10 13 16 16 17 18 16 14 9 7 8 6 9 10 10 12 13 14 14 17 15 14 15 19 21 20 17 16 14 13 13 13 10 11 16 16 15 14 12 13 10 8 8 8 9 9 10 11
8 8 8 8 8 8 8 8 8 8 9 10 11 11 10 10 10 10 9 9 9 8 8 8 7 7 6 4 3 4 6 2 4 2 2 2 2 5 9 12 13 16 18 18 20 19 16 13 7 7 7 9 14 13 9 10 11 10 10 14 16 17 20 22 22 20 19 18 15 12 15 16 10 10 17 18 18 17 16 16 12 11 12 11 11 11 12 12
6 7 7 8 8 8 8 8 8 8 8 8 9 11 11 11 10 10 10 9 9 9 9 8 7 7 5 3 2 3 4 1 5 4 3 2 3 6 11 15 17 20 20 20 21 19 16 12 5 8 11 13 16 14 10 10 9 7 8 10 14 18 18 16 18 20 21 21 17 14 18 19 11 11 18 17 19 21 21 18 15 15 15 12 10 10 11 10
6 6 6 7 7 8 8 8 8 7 7 7 7 8 10 11 11 10 10 9 9 9 8 7 7 5 3 2 2 3 3 2 4 6 4 3 3 6 11 14 18 20 20 21 21 19 14 7 4 10 13 15 15 12 11 11 9 7 8 8 11 16 14 9 8 15 20 19 14 15 18 16 9 11 18 16 18 22 23 21 17 14 11 9 8 7 7 6
6 6 6 7 7 7 7 8 7 7 6 5 5 5 6 9 11 11 11 9 9 9 8 6 5 3 1 1 0 2 3 3 3 5 5 5 6 6 9 12 15 17 18 20 19 16 11 6 8 12 12 15 16 12 11 11 9 8 9 11 11 15 18 15 8 10 16 16 15 18 19 15 8 9 14 16 19 24 25 19 13 9 7 8 8 5 4 3
7 7 8 7 7 7 8 7 7 6 5 4 3 2 2 4 7 10 11 10 10 9 8 5 3 2 1 2 1 1 2 3 2 5 6 10 11 11 11 9 11 14 16 16 13 11 8 7 10 12 12 15 16 13 10 10 11 9 7 11 12 15 19 22 17 12 15 17 19 21 22 20 12 8 11 18 24 26 21 15 10 7 8 9 8 6 4 2
9 9 9 8 8 7 7 7 6 5 4 3 2 2 3 3 4 7 9 11 11 10 8 5 4 4 3 4 3 1 1 2 3 4 8 12 12 14 15 11 7 9 13 13 9 7 5 4 6 8 12 15 15 14 12 9 8 7 8 10 10 11 14 19 21 15 14 17 22 23 25 21 10 7 13 18 25 22 14 11 10 10 10 9 9 7 5 1
10 10 10 9 8 7 6 6 6 3 2 2 3 4 4 4 4 5 7 10 12 11 9 7 8 9 6 8 10 5 2 2 5 7 9 9 9 12 16 14 10 8 10 11 8 6 4 3 5 9 15 16 16 16 15 10 6 10 12 12 14 15 15 18 20 14 14 17 23 24 27 22 10 14 20 19 20 15 12 13 13 13 12 10 10 8 5 2
10 10 10 9 9 7 6 5 5 3 1 4 5 4 3 3 5 7 8 10 12 14 13 11 12 14 11 12 12 5 2 2 3 6 7 6 7 10 13 14 11 7 8 9 6 2 2 5 7 13 16 12 11 13 13 11 11 14 14 17 19 21 20 19 15 11 16 20 24 21 25 23 13 18 21 20 21 17 16 16 16 16 15 13 10 7 5 5
10 10 10 9 9 7 5 4 4 2 1 4 5 4 4 5 8 12 12 10 12 15 16 14 14 16 13 11 12 9 4 1 3 3 7 6 7 9 10 9 9 10 9 6 3 4 7 9 7 11 11 7 5 7 9 11 12 14 15 18 19 21 21 16 10 9 17 20 23 22 24 21 18 21 17 15 21 20 18 18 17 16 14 12 10 9 8 7
10 10 10 9 9 8 5 4 3 2 1 3 4 5 5 8 11 13 13 10 11 14 17 17 17 16 13 11 12 12 11 7 5 3 8 9 9 10 9 8 9 11 9 6 6 7 11 10 6 9 8 7 5 4 7 9 11 15 15 16 17 18 19 9 8 6 15 18 20 23 22 16 16 21 15 10 15 20 21 18 15 13 13 13 11 10 7 6
10 10 9 9 8 8 6 4 3 2 1 2 4 6 7 9 10 11 13 13 9 12 16 18 16 15 15 12 13 13 11 11 9 6 8 10 11 11 11 10 9 8 9 11 10 11 11 4 7 6 6 8 8 6 9 12 14 17 16 16 17 16 15 9 6 6 8 11 12 17 19 16 13 14 12 7 8 15 20 17 12 11 12 11 10 8 5 5
11 10 9 8 8 8 6 4 2 1 1 3 6 9 9 9 9 9 11 15 9 8 13 15 15 16 16 13 12 11 8 10 10 7 8 10 11 13 13 11 9 9 10 11 10 13 12 3 2 3 6 9 11 11 15 17 15 15 16 17 16 11 9 9 6 5 1 2 2 7 12 15 16 13 9 4 3 9 18 18 14 13 12 9 9 8 7 6
11 11 10 8 8 7 7 5 3 3 4 6 9 10 9 8 7 7 9 14 10 5 10 12 15 17 18 14 11 10 9 10 10 8 9 9 10 10 10 11 12 12 12 10 10 15 15 8 8 11 11 11 13 14 14 12 12 13 14 14 10 5 5 7 7 5 6 6 5 5 5 8 15 17 11 5 3 6 14 18 17 16 14 13 12 9 9 7
12 12 10 9 9 7 7 6 5 6 6 8 11 11 10 8 5 7 10 15 11 4 7 9 12 14 19 17 10 10 11 14 12 12 13 11 10 8 8 12 14 11 9 9 11 15 17 14 14 17 14 12 14 15 12 9 8 9 11 10 6 4 6 6 4 5 6 6 4 4 4 5 9 15 12 7 4 3 11 18 18 19 18 16 14 10 10 8
14 13 12 11 9 8 7 7 7 8 8 10 13 11 9 7 4 7 9 10 8 2 5 8 9 11 17 19 13 13 12 10 10 15 17 14 14 13 11 14 14 10 8 10 12 13 13 14 14 17 16 16 16 14 12 11 10 12 13 9 7 6 8 4 1 2 4 5 5 4 6 5 8 12 11 7 5 5 9 20 21 19 19 17 14 11 9 9
15 15 14 13 11 9 8 8 9 10 11 13 14 11 8 7 4 4 4 2 2 2 2 6 9 9 11 15 17 16 11 5 5 10 14 14 15 18 17 15 15 14 12 12 16 14 11 13 11 17 18 16 15 13 11 12 14 16 13 9 8 8 8 7 3 2 4 4 5 6 10 6 7 10 9 7 6 7 7 16 22 20 19 16 13 10 9 8
15 16 15 15 13 11 10 10 11 11 13 14 13 11 9 6 3 1 2 1 1 1 1 4 9 9 8 12 17 17 12 9 6 5 10 16 17 20 21 17 15 17 17 18 21 18 14 13 9 15 16 15 14 11 10 11 14 14 10 9 9 8 8 9 9 7 4 4 5 6 10 6 4 8 9 9 8 8 7 11 20 20 17 15 12 10 10 9
15 16 16 16 15 13 12 12 11 12 13 13 12 11 9 6 4 3 1 2 2 1 2 5 8 9 7 11 18 19 16 14 11 7 9 16 17 19 21 19 15 15 16 19 22 21 17 13 10 14 12 10 11 8 9 9 11 11 11 12 12 12 13 11 10 9 4 2 3 3 4 3 1 4 8 9 8 9 9 8 18 18 15 16 13 11 11 12
14 15 16 16 16 15 13 13 12 11 12 11 11 11 10 7 6 4 1 3 4 3 4 5 7 10 9 10 15 19 18 16 15 14 11 14 18 20 20 18 16 15 16 19 20 20 16 11 11 14 10 9 10 9 9 10 9 8 9 12 11 10 9 8 8 5 1 1 3 3 3 3 3 4 6 8 9 8 9 11 17 18 18 17 14 12 13 14
16 16 16 16 17 15 13 14 14 12 11 11 11 12 11 8 8 9 6 2 3 4 5 2 2 9 12 11 13 17 17 16 16 16 14 16 20 22 20 17 15 14 14 16 17 16 14 11 11 12 11 10 11 10 10 9 10 9 7 8 8 1 1 3 5 2 1 1 2 2 3 3 5 7 8 9 10 6 5 12 20 21 20 20 16 16 18 17
18 18 16 16 17 15 13 15 16 13 11 12 12 12 12 7 6 14 14 7 3 4 5 3 5 6 10 13 15 15 15 17 16 14 15 18 20 20 17 14 14 14 12 11 12 12 12 12 10 10 11 12 12 11 9 8 12 12 8 9 8 3 3 1 3 1 2 2 1 2 4 3 4 6 8 11 12 10 6 10 19 19 18 18 17 19 19 18
19 19 18 17 16 13 14 17 17 15 14 14 13 12 13 10 7 11 14 12 9 5 3 5 8 7 7 10 15 16 16 17 16 15 16 19 21 20 18 15 13 13 13 11 11 8 6 6 7 8 10 11 13 13 9 9 13 10 5 5 6 4 4 3 3 3 2 1 1 3 3 1 1 1 3 6 6 7 6 11 17 17 16 17 18 19 18 18
19 20 18 17 15 13 15 18 19 18 16 15 14 15 17 16 13 12 12 12 9 7 8 10 13 13 12 10 11 14 17 18 16 18 19 20 21 18 18 18 15 14 15 14 13 9 7 7 8 8 7 5 8 9 7 8 11 9 4 5 8 10 10 6 5 6 5 2 1 3 2 2 2 1 3 3 2 5 7 11 16 16 17 18 18 18 17 18
18 20 19 17 15 14 16 19 20 20 18 17 17 19 22 20 16 13 11 8 5 7 10 13 13 13 17 14 9 5 9 15 16 18 18 19 20 19 18 17 14 15 18 15 12 8 7 8 7 6 3 3 6 7 7 7 5 6 5 2 3 7 10 9 5 5 5 3 1 4 5 7 7 5 4 5 8 10 10 13 14 14 15 16 15 15 16 16
16 18 19 16 13 15 18 20 21 22 20 19 20 22 23 22 18 16 12 9 6 6 11 14 10 5 10 13 14 9 8 8 12 17 17 13 13 15 18 18 15 18 20 16 13 10 9 9 6 4 3 4 8 8 9 8 3 2 3 3 2 2 5 7 4 2 3 2 2 5 4 2 1 4 7 8 13 15 15 15 15 14 15 16 15 15 15 13
14 14 15 13 13 17 19 20 21 22 21 21 23 23 23 21 20 18 15 13 9 8 12 14 10 5 6 9 14 15 14 7 7 15 17 15 14 12 11 9 10 18 20 18 17 13 12 11 5 5 6 3 5 9 8 6 6 6 3 3 5 4 5 6 3 1 1 1 2 3 3 5 8 3 4 7 14 17 16 16 14 15 16 16 17 16 15 15
12 9 7 9 14 17 19 20 21 22 22 22 23 23 22 21 19 16 15 14 12 11 13 12 8 5 6 6 7 9 12 8 6 12 15 14 15 14 9 3 1 8 12 16 20 15 12 11 4 5 10 4 2 5 2 5 2 4 5 4 5 4 5 6 5 4 3 2 2 1 2 6 9 7 2 6 12 14 17 18 17 19 20 19 19 17 16 18
9 3 5 10 14 15 16 19 21 22 23 23 24 22 20 19 18 16 14 14 12 9 11 12 10 7 4 4 3 2 8 13 13 13 12 11 10 8 9 9 5 3 3 8 16 14 13 13 9 7 10 7 2 3 5 9 9 5 4 3 3 4 6 5 4 5 6 4 3 2 1 3 6 6 4 2 7 10 15 18 18 19 19 17 17 16 17 20
5 6 10 12 14 16 17 20 22 22 22 22 21 21 19 17 16 15 13 12 11 9 11 13 14 13 8 6 5 2 4 13 17 15 10 9 10 5 3 10 15 11 6 6 10 10 11 12 11 10 10 10 4 5 4 5 7 8 6 5 1 4 7 6 3 5 6 3 4 4 2 3 6 3 1 0 2 3 8 15 17 17 17 15 14 14 15 17
4 10 13 14 15 16 17 19 20 18 16 16 15 15 16 16 15 13 9 9 8 9 10 11 10 12 11 8 8 6 4 7 13 16 14 10 10 7 2 6 13 13 13 12 8 8 9 9 10 11 11 12 9 7 8 8 7 3 6 9 4 1 4 6 4 5 6 4 6 7 4 4 7 3 2 3 3 2 5 9 12 11 12 13 12 12 14 15
7 11 15 18 18 16 16 18 17 13 10 10 10 9 10 11 12 11 8 7 8 10 9 9 6 6 7 6 9 8 6 5 7 10 13 11 11 13 10 8 5 3 10 15 11 7 8 7 7 9 11 15 13 8 9 9 5 4 11 14 11 7 1 4 6 7 6 5 7 6 3 5 7 4 2 5 5 4 5 9 11 11 13 15 17 17 18 18
9 13 15 19 20 20 20 17 12 9 9 8 8 7 7 9 9 9 10 10 12 15 15 12 7 4 4 5 8 7 5 6 5 3 7 9 9 12 15 11 5 5 5 10 12 9 7 7 5 4 5 9 11 8 6 6 3 5 8 10 10 9 5 3 5 5 5 4 4 4 5 8 10 7 1 4 6 7 7 10 13 15 16 19 19 18 18 18
9 15 15 16 17 18 17 11 5 7 9 8 11 12 11 12 11 10 11 8 4 8 14 13 8 5 3 5 8 7 3 4 4 1 2 5 7 7 10 14 18 17 9 5 9 9 6 6 6 4 1 1 4 3 3 4 3 1 2 5 9 10 7 3 3 4 5 4 3 5 9 12 12 8 3 2 4 6 7 8 9 12 16 18 17 17 18 19
5 11 12 12 13 13 10 5 4 6 6 6 9 10 10 12 12 10 12 9 3 3 8 14 14 10 7 7 7 7 5 2 2 3 6 5 8 7 5 8 16 21 17 10 9 8 7 6 6 7 6 5 5 4 5 8 8 8 8 9 10 9 8 5 2 5 6 2 2 7 13 13 10 5 1 1 2 2 3 5 8 10 14 15 15 16 18 19
3 4 6 7 9 9 9 9 7 5 1 1 1 3 4 8 11 10 9 9 8 6 4 8 14 14 10 8 8 8 6 4 2 4 8 7 7 8 8 9 11 14 15 14 13 12 10 9 8 8 8 7 8 10 12 12 9 9 10 10 9 6 6 5 2 3 2 1 4 9 11 10 7 5 4 6 8 7 7 7 8 11 12 12 14 14 14 15
2 2 2 1 3 3 1 5 6 5 3 5 6 5 4 5 7 8 6 6 9 11 7 4 6 10 9 8 9 9 7 6 4 4 8 10 10 11 13 12 11 13 13 13 13 12 11 9 10 11 9 9 11 12 15 16 12 9 8 8 8 7 6 5 2 2 2 2 4 5 6 8 8 5 3 5 8 11 12 12 11 12 12 13 14 14 13 13
2 1 1 3 7 7 5 8 6 4 4 7 8 7 6 4 3 6 6 6 6 9 10 7 2 4 6 7 9 10 8 8 6 4 7 10 9 9 11 9 8 10 9 8 8 9 8 7 8 10 10 10 11 11 11 15 16 11 7 6 6 6 5 3 2 2 4 2 5 6 7 10 11 7 6 6 5 7 10 12 12 12 12 13 14 16 17 17
6 7 6 7 9 7 3 7 6 5 6 9 8 7 9 10 5 2 4 5 4 3 6 7 4 3 3 3 7 10 11 10 7 6 8 11 9 8 9 7 6 7 7 6 7 7 7 7 8 9 8 8 10 10 10 12 12 7 6 5 5 4 1 0 1 1 2 4 8 9 9 10 10 7 6 7 7 8 10 12 12 11 11 11 13 15 17 18
10 13 11 9 10 10 6 4 3 5 6 11 10 6 6 11 10 4 2 1 2 3 4 6 7 6 6 5 3 7 9 10 9 8 8 11 11 10 9 9 9 9 7 6 7 7 7 8 8 8 7 6 7 9 10 11 10 6 5 4 3 3 2 2 2 3 6 9 9 9 9 10 9 7 8 9 10 11 12 14 14 14 13 13 12 13 15 16
9 11 9 6 9 11 9 4 1 2 6 11 12 7 3 6 8 5 4 4 1 3 3 6 9 9 9 7 5 6 9 10 11 11 10 11 12 12 11 10 10 10 8 6 7 7 7 9 9 7 6 5 6 8 9 10 8 5 3 3 4 1 2 3 4 4 7 9 9 9 10 11 9 10 11 12 13 14 14 14 16 17 17 17 16 14 14 15
Wind_Direction
290 288 285 284 281 279 276 274 272 270 269 268 267 268 268 268 268 268 269 271 275 278 280 281 280 280 280 277 274 274 272 271 269 264 262 258 255 252 248 239 231 224 217 219 217 214 214 209 204 202 203 201 199 205 214 214 200 189 190 201 210 209 205 202 209 222 245 254 346 359 282 248 152 151 151 227 269 287 289 275 273 291 294 276 269 266 260 270
292 290 288 286 282 280 277 274 271 269 268 266 265 265 265 266 266 267 269 271 273 276 278 279 279 280 279 276 275 273 271 273 270 266 264 258 252 246 240 235 228 218 212 213 210 207 207 202 200 203 206 203 200 205 212 210 202 198 200 209 218 214 207 214 226 238 265 279 324 333 292 278 247 184 239 267 275 257 266 280 290 312 303 276 268 258 252 265
296 294 292 288 285 282 277 274 270 268 266 264 263 262 263 264 265 266 268 271 273 276 276 277 279 280 277 275 275 273 276 277 272 269 264 256 252 246 237 234 230 221 211 208 205 200 197 196 197 197 199 200 199 204 207 204 202 206 210 221 229 227 223 227 238 246 264 302 320 322 295 270 249 203 269 301 293 254 258 272 285 297 298 289 272 256 248 257
304 300 296 292 287 282 277 273 269 267 265 262 261 260 261 261 263 265 266 269 271 272 273 275 279 278 277 276 275 277 283 280 273 274 267 257 249 242 235 230 228 219 210 208 202 197 195 195 197 197 196 191 192 201 200 196 198 207 218 231 241 251 249 240 250 256 268 307 305 303 294 265 240 226 261 309 284 262 262 274 288 288 294 309 279 252 249 259
318 312 305 298 292 284 277 272 268 266 264 262 260 258 257 258 260 261 263 266 267 270 272 276 279 277 278 277 277 281 283 276 267 268 265 255 244 234 228 224 221 213 208 206 199 197 196 194 196 199 198 188 187 194 194 191 194 205 219 234 246 260 262 253 262 266 277 305 296 292 291 277 257 242 252 274 266 265 266 278 287 278 279 304 285 254 254 256
332 329 321 310 300 290 280 273 269 265 263 261 258 255 254 254 256 258 261 264 265 269 273 278 279 277 278 276 277 281 269 250 237 244 255 257 250 235 223 214 213 211 207 204 199 197 194 193 196 199 196 186 187 191 188 184 194 215 220 230 245 264 273 266 248 262 279 297 298 291 285 281 276 263 264 268 258 259 265 274 279 273 273 288 294 278 255 241
334 335 331 324 313 300 288 278 271 266 262 258 255 253 250 250 253 256 258 261 264 268 273 277 277 277 278 277 277 274 256 241 233 242 254 259 255 242 227 211 207 208 205 202 199 197 194 194 196 198 194 185 187 189 182 180 198 228 227 227 250 268 273 272 270 278 279 277 288 290 283 282 284 283 281 271 256 252 262 268 269 270 281 293 297 280 242 226
327 328 330 329 322 310 295 282 274 267 262 257 253 250 247 248 251 254 256 259 263 266 272 275 277 279 277 276 271 267 258 252 252 248 249 252 248 240 227 211 203 202 198 195 195 195 194 195 198 204 200 188 188 181 175 190 208 229 239 253 270 277 276 279 280 278 271 265 276 284 281 285 291 294 285 274 265 254 264 273 266 268 282 289 264 239 227 224
319 320 322 323 323 317 302 287 277 268 261 255 251 248 246 247 248 252 253 256 261 264 270 274 277 279 276 274 264 261 255 263 271 254 249 250 244 237 221 206 196 191 190 188 188 190 190 195 197 200 191 173 186 177 177 216 226 228 243 265 274 277 274 276 277 275 269 262 269 278 282 290 295 291 274 268 267 261 275 282 263 262 265 213 199 227 236 234
313 313 313 315 317 316 308 294 280 268 261 255 250 249 246 245 246 248 251 254 259 263 270 272 275 276 273 272 259 253 247 269 277 249 244 244 235 227 212 199 189 182 183 182 179 179 178 180 172 168 173 174 208 200 207 247 246 239 246 263 276 279 270 267 268 272 271 259 261 279 286 290 284 257 259 261 260 269 274 252 245 253 242 207 218 245 251 253
308 307 306 307 308 310 310 301 287 273 263 255 251 251 247 246 244 245 249 253 258 262 267 268 271 271 270 265 250 248 241 228 265 246 234 228 220 213 197 181 177 175 177 174 167 160 154 155 155 169 193 205 234 234 238 245 254 256 259 266 271 273 259 250 253 259 264 257 261 282 287 281 258 244 257 252 247 267 254 216 232 254 246 249 260 260 256 257
305 304 302 302 302 304 307 305 296 283 269 259 253 250 247 246 244 245 248 251 257 261 265 267 268 268 265 256 247 257 255 181 137 253 233 201 204 195 173 160 166 167 163 160 157 158 155 157 174 203 207 230 247 245 235 231 248 255 261 266 259 261 249 235 242 250 255 258 261 273 280 269 252 254 260 251 246 252 229 216 237 248 246 270 280 272 261 257
309 306 302 301 301 301 303 305 302 295 282 268 258 252 248 246 245 246 248 250 255 258 261 264 265 267 264 250 239 272 273 171 131 176 192 172 176 178 163 150 155 155 152 154 158 161 167 171 193 222 223 251 249 246 232 218 240 249 259 262 255 260 253 241 246 250 249 251 249 251 271 267 241 246 260 256 251 242 221 220 240 244 247 266 276 277 275 275
321 315 312 309 304 302 301 302 303 302 296 284 270 258 250 247 247 248 249 251 253 256 261 264 268 274 266 236 214 270 274 192 148 151 138 145 160 179 168 155 158 159 156 160 163 166 175 178 211 241 235 241 238 238 226 217 234 249 257 251 249 257 259 260 258 252 245 243 244 240 258 260 227 242 261 262 263 248 223 216 232 242 246 258 265 272 278 288
334 330 327 321 316 310 304 301 299 300 301 301 290 271 255 248 247 246 248 250 253 257 260 266 272 277 271 230 246 284 278 238 162 139 118 134 165 185 173 163 168 168 165 168 173 175 178 185 239 240 232 226 226 234 230 227 231 233 252 253 249 254 269 297 264 244 239 234 237 231 244 251 225 249 262 262 261 239 216 211 222 233 240 255 258 263 271 288
330 330 329 327 329 325 319 309 295 293 300 305 298 282 261 249 246 245 245 246 252 257 259 266 269 265 267 199 353 333 305 271 177 125 115 130 136 153 160 170 178 176 175 178 182 185 189 211 229 232 229 214 216 229 227 233 227 210 248 274 269 264 277 293 281 245 239 234 233 227 232 245 251 262 258 258 245 217 206 209 211 221 242 252 246 243 255 301
318 319 318 321 326 330 336 327 302 288 291 295 285 273 259 247 245 244 243 244 248 254 253 252 247 215 120 83 62 342 295 259 162 112 131 144 141 138 132 150 185 189 188 188 188 191 197 213 228 233 219 205 212 224 228 236 226 207 251 284 281 281 280 285 293 273 248 244 239 232 228 235 260 267 243 243 228 205 199 210 213 224 235 231 225 227 244 313
312 312 311 313 316 324 335 337 324 293 272 266 234 178 158 182 222 231 235 240 240 246 247 237 217 190 129 90 91 83 239 196 157 149 157 159 159 145 121 114 149 174 180 184 183 181 173 189 236 232 200 195 201 212 225 224 215 235 287 298 295 300 285 289 300 278 253 250 236 232 227 228 252 228 203 214 211 201 205 227 232 225 218 215 216 223 228 235
313 312 310 308 308 315 325 338 340 309 257 218 191 177 182 198 223 225 225 229 229 232 237 225 197 180 146 108 100 72 356 127 150 180 178 174 179 155 132 129 133 144 166 166 160 156 156 190 231 201 184 191 197 207 223 221 240 279 291 293 295 300 295 309 311 268 246 238 220 221 224 223 224 196 195 202 203 210 231 235 226 213 203 198 201 212 211 169
313 315 313 307 303 308 316 332 343 336 228 200 192 189 201 229 260 262 256 239 226 221 220 212 186 169 147 127 123 107 359 66 119 179 186 177 177 161 144 144 145 165 179 161 156 170 214 240 226 192 181 188 197 207 227 241 267 278 278 281 287 288 293 325 328 243 216 213 207 212 217 215 195 180 192 204 204 216 237 231 216 203 192 184 184 193 189 156
311 317 316 309 303 302 309 322 338 357 195 204 210 213 234 272 282 290 289 260 233 225 221 211 191 175 162 155 156 153 157 275 336 175 186 179 170 171 161 159 172 181 169 156 211 274 266 259 226 189 187 199 208 216 238 247 256 261 265 274 283 285 293 333 0 215 204 203 204 204 209 207 192 184 193 210 209 218 236 229 212 195 180 174 172 174 178 169
307 313 314 312 305 299 303 313 322 335 224 211 237 248 273 293 295 305 304 273 234 228 225 213 200 188 178 174 174 168 166 199 274 228 193 192 179 180 180 187 193 178 169 194 232 251 256 252 189 168 186 211 240 248 229 225 239 256 270 279 283 289 296 331 56 156 195 196 192 195 201 196 189 195 205 225 223 228 237 232 223 203 176 170 175 176 184 198
301 305 309 309 303 298 297 300 308 307 261 214 246 256 270 285 293 308 307 291 254 229 229 219 206 193 183 177 176 183 179 188 230 244 208 203 186 186 191 186 185 177 184 203 212 225 234 210 133 159 207 230 245 243 227 234 251 265 279 287 287 295 301 308 32 73 173 182 177 193 205 201 191 197 208 229 235 231 230 229 235 224 197 187 187 178 177 198
294 297 301 302 298 298 290 284 287 275 221 210 239 250 259 274 291 300 296 293 279 237 241 229 210 193 179 169 171 196 211 199 216 232 223 212 184 186 193 179 184 197 194 196 211 228 226 184 122 256 273 258 253 243 238 246 258 269 280 288 287 292 300 292 318 9 352 270 230 222 227 219 214 214 220 233 237 230 223 221 222 213 204 198 186 175 179 197
288 288 291 295 293 292 282 272 248 222 210 221 243 257 266 272 290 308 309 309 305 249 246 233 212 193 174 172 179 193 220 224 218 223 230 215 178 182 194 191 200 200 192 197 225 245 251 262 267 266 267 253 243 238 237 249 264 276 282 281 278 288 303 282 272 274 290 303 294 276 265 239 230 231 244 280 282 235 219 221 223 211 205 198 187 189 193 199
280 280 283 286 285 285 276 264 239 226 220 234 256 273 284 279 290 338 329 315 315 266 235 226 209 196 186 193 188 172 212 242 239 239 241 224 208 221 214 206 213 208 204 222 245 257 271 282 266 256 246 218 212 219 228 251 262 272 280 266 252 284 301 293 268 258 275 278 280 275 248 257 253 243 259 286 298 262 216 221 226 220 218 208 193 193 200 213
275 274 275 277 278 277 266 256 245 233 222 236 258 274 301 314 331 352 332 307 314 311 226 214 201 201 202 207 197 176 202 237 231 233 235 220 219 233 228 214 219 228 229 243 256 256 275 292 262 236 218 201 206 217 230 247 253 266 277 258 241 274 286 294 10 7 316 280 270 259 224 248 273 260 274 282 276 302 233 215 216 218 224 217 191 181 200 224
271 269 269 269 271 272 260 251 242 231 226 237 254 267 296 322 327 337 345 324 323 349 235 209 197 200 205 206 203 195 193 191 191 219 225 218 219 225 228 222 224 239 240 245 260 256 267 294 265 221 214 217 227 238 249 254 256 266 274 260 254 270 276 276 275 327 351 313 273 233 207 226 273 264 281 293 275 303 268 219 220 227 226 211 186 187 220 226
268 266 265 263 263 264 260 253 242 235 239 243 252 261 271 294 295 285 24 43 277 285 265 224 207 204 203 201 205 207 207 207 219 238 220 219 222 221 228 232 236 249 247 247 263 265 266 287 264 221 226 235 237 255 274 260 250 254 257 261 261 258 269 279 272 276 316 319 275 229 211 221 276 260 265 286 285 304 306 228 218 226 220 202 197 216 225 204
268 264 261 259 257 255 254 255 248 244 251 255 259 258 254 262 244 194 174 239 253 283 250 242 225 207 207 207 205 211 220 223 234 248 215 215 223 220 226 238 244 251 249 246 255 259 266 280 245 222 239 245 237 263 292 271 252 251 256 265 263 255 263 278 280 275 288 299 235 202 218 223 278 282 266 278 294 306 306 237 206 209 204 199 212 220 204 180
269 264 259 256 254 250 248 251 249 243 247 254 256 252 246 238 216 185 165 239 254 258 228 236 231 211 216 229 213 209 218 226 234 239 216 204 215 214 218 233 238 243 251 249 249 253 264 271 235 232 253 250 240 254 279 274 254 258 272 262 253 252 256 276 294 283 242 241 203 197 270 256 224 273 264 266 286 300 291 246 216 207 202 207 217 204 181 174
268 263 259 254 251 249 243 243 245 238 235 236 234 236 233 218 209 210 207 227 270 242 212 211 266 228 225 235 224 211 217 226 231 236 222 201 205 209 214 229 237 239 248 251 252 256 262 262 243 242 247 242 248 255 269 271 241 248 268 223 209 196 71 290 297 287 190 216 179 201 289 281 246 259 262 260 266 279 278 234 222 217 217 223 218 189 173 175
266 262 258 254 251 246 234 236 242 236 227 226 222 223 217 201 223 228 224 228 216 181 196 242 315 277 238 229 223 218 225 232 228 226 221 209 208 212 219 237 246 239 237 240 248 256 260 264 256 248 243 240 246 248 260 261 229 237 249 199 182 117 89 281 278 296 290 245 134 330 310 300 268 262 265 265 259 263 270 225 217 217 219 217 196 170 167 174
265 261 256 252 251 244 230 231 238 233 223 220 218 213 205 202 227 231 229 231 220 203 235 295 307 290 261 244 232 224 229 235 228 221 221 215 214 222 230 243 247 235 231 228 234 245 255 266 259 249 249 246 243 241 249 245 221 222 248 227 221 208 184 216 215 196 221 210 332 322 310 270 192 216 271 280 258 240 229 204 202 204 205 204 185 168 170 175
265 260 255 250 246 239 227 225 230 231 224 218 216 211 210 217 227 234 240 237 238 265 286 311 307 268 256 270 253 232 233 236 229 226 228 220 220 231 238 242 244 235 229 227 233 242 241 249 254 247 247 247 235 226 223 228 218 214 249 268 251 240 226 213 188 183 178 135 318 274 256 248 256 295 299 294 203 186 194 190 191 189 188 189 181 176 180 179
268 261 254 248 241 232 225 222 223 226 224 219 218 219 221 226 233 239 244 229 242 301 299 315 313 250 236 252 255 252 244 233 226 226 227 223 227 236 237 240 246 230 221 222 224 216 210 233 246 237 237 220 202 196 200 206 193 197 220 241 242 235 221 202 179 173 156 111 248 240 254 265 261 251 233 225 213 212 216 205 199 199 195 195 194 190 188 183
274 265 257 248 235 226 226 224 221 221 222 220 221 227 231 235 238 239 241 231 234 299 305 314 324 235 219 232 233 262 290 245 219 221 225 228 234 235 228 232 240 228 222 224 218 199 202 229 246 239 239 217 200 197 205 206 191 205 192 144 150 191 196 190 167 108 105 103 240 234 235 267 280 207 195 189 184 189 203 205 205 213 212 210 209 200 197 203
276 272 265 247 222 220 223 222 220 217 218 222 226 232 236 237 239 240 245 249 257 290 298 301 307 271 242 231 230 255 277 272 206 212 221 228 233 234 229 231 237 230 225 223 218 206 210 228 254 242 227 213 198 196 198 209 227 241 229 170 191 193 174 172 162 136 139 179 249 234 180 78 54 62 202 198 180 177 196 211 218 228 228 227 225 219 224 238
279 278 269 229 213 221 223 217 216 215 215 222 228 233 237 239 240 241 244 252 265 290 300 300 296 264 240 238 249 257 251 244 223 217 216 215 217 219 217 186 153 213 210 213 212 198 199 220 233 210 209 202 161 171 123 15 350 225 245 238 215 195 177 172 174 176 155 169 230 270 104 79 61 53 69 204 202 197 209 221 232 237 235 236 236 236 243 254
283 252 190 195 200 212 220 213 209 211 215 223 230 234 240 244 243 240 241 249 257 277 294 292 281 269 239 222 260 268 217 229 247 241 219 198 189 191 201 198 189 191 170 205 211 195 192 213 220 214 212 207 128 75 32 10 10 4 333 292 241 199 176 170 174 160 132 141 169 121 53 78 72 57 59 167 218 213 212 221 232 234 231 234 240 247 255 258
263 176 172 189 194 195 206 210 207 211 217 225 234 239 243 250 250 243 239 242 252 272 281 277 273 276 276 238 233 272 226 234 250 254 236 199 181 157 166 202 211 233 268 245 218 201 191 202 216 229 233 229 250 345 337 330 343 346 11 34 316 206 174 159 166 167 148 150 153 142 172 101 76 55 17 77 235 203 206 222 229 229 232 238 240 241 246 249
193 165 168 184 195 194 201 209 207 209 218 227 241 249 251 255 252 246 235 225 247 284 276 267 273 275 273 244 227 257 276 238 246 252 252 242 219 208 153 172 202 235 262 252 233 215 206 207 218 231 245 246 256 305 303 301 317 329 72 70 58 256 189 176 172 169 158 156 157 144 138 104 75 39 262 232 232 189 182 206 215 220 229 233 232 235 243 251
172 162 170 184 195 196 202 207 201 202 226 244 253 254 255 256 249 248 254 243 270 292 269 252 267 269 268 246 222 243 265 232 230 243 245 254 252 231 201 151 145 233 246 234 227 222 213 209 220 236 252 254 257 284 288 281 271 127 81 65 62 55 64 182 170 164 146 141 163 155 120 108 84 44 260 227 236 236 223 227 235 243 242 240 242 247 253 257
177 164 169 182 186 188 198 204 198 216 253 266 260 256 268 272 261 268 287 289 285 276 256 247 253 244 258 247 218 226 249 220 211 235 233 233 246 235 211 191 214 278 262 219 212 211 206 201 212 247 284 275 276 292 287 265 223 120 73 47 48 47 46 124 138 149 137 126 158 166 148 123 96 74 138 212 233 238 237 236 238 241 241 239 239 236 234 238
191 176 176 183 185 190 201 206 199 230 251 262 262 266 278 278 267 265 279 290 291 256 240 233 228 216 225 233 212 206 198 182 184 101 102 191 209 228 224 219 230 246 261 233 207 207 211 211 211 205 177 250 274 295 311 305 319 27 8 355 9 10 9 47 85 105 122 122 113 136 148 133 110 96 95 152 209 220 226 218 214 227 233 231 226 217 213 217
215 194 196 201 198 194 197 201 199 220 245 269 267 265 275 277 266 253 258 257 224 219 228 219 218 221 225 226 215 210 206 177 166 112 88 135 188 198 215 222 224 232 244 255 249 243 236 224 221 222 214 203 208 231 277 298 309 309 306 327 348 350 350 358 44 94 111 128 108 139 153 149 137 137 61 316 209 193 208 202 195 208 220 223 224 223 223 225
276 215 199 205 210 198 187 191 191 189 211 333 251 225 245 266 260 241 236 238 228 229 230 214 222 230 231 226 212 201 205 209 183 115 100 125 173 178 181 195 199 210 227 240 246 250 246 235 232 235 232 223 222 232 249 269 298 314 309 323 342 342 330 320 329 87 102 162 119 136 156 164 167 193 245 253 248 251 248 237 224 221 226 233 238 242 249 253
311 265 212 205 313 316 152 150 163 162 125 105 116 134 164 215 235 216 193 201 214 219 219 206 215 220 216 219 213 201 205 217 206 122 112 128 145 154 165 180 186 191 211 230 235 238 243 240 236 235 230 228 232 233 238 250 270 291 298 313 329 328 314 306 339 31 302 220 137 147 171 161 151 152 169 200 228 240 241 245 247 245 249 254 256 259 262 262
25 305 298 44 33 20 54 82 103 152 125 112 123 113 100 120 187 200 200 212 211 209 218 222 222 216 210 209 214 213 212 207 189 153 146 147 145 151 156 157 169 184 199 224 231 232 231 218 218 225 221 222 231 234 235 242 251 270 305 324 322 323 322 322 12 348 281 235 159 180 189 158 142 131 127 142 171 201 217 232 240 244 249 252 257 262 261 260
83 91 87 88 66 43 73 107 123 155 123 110 118 98 77 82 96 179 224 236 233 204 210 218 230 272 270 232 216 217 217 212 195 171 170 169 164 166 166 157 156 168 179 197 206 210 207 191 194 211 212 211 223 228 231 239 247 279 328 320 304 317 337 116 106 183 201 160 151 169 176 156 145 147 154 163 180 191 200 214 224 232 238 239 244 250 255 260
96 96 94 112 90 60 61 103 158 185 129 95 85 73 71 80 80 77 92 121 225 225 213 217 225 248 273 281 237 204 204 212 211 198 194 194 185 180 184 182 177 178 182 192 195 196 201 196 190 196 203 212 229 236 235 238 249 286 314 312 329 326 283 205 185 165 155 157 163 176 176 161 156 176 194 202 210 211 209 211 216 223 228 230 233 235 241 247
91 88 77 99 102 82 72 76 127 140 97 78 69 62 64 84 90 105 101 85 124 204 210 229 236 241 249 256 241 193 185 198 208 207 207 205 194 189 194 196 195 198 198 190 184 183 196 202 199 208 221 226 241 250 248 246 256 284 311 10 48 73 204 189 175 160 153 166 181 193 187 177 179 199 214 226 232 232 230 227 227 228 227 227 226 223 223 227
Height
3107 3106 3106 3105 3105 3105 3104 3104 3104 3104 3104 3104 3104 3103 3103 3103 3103 3102 3102 3102 3102 3101 3101 3101 3100 3100 3100 3100 3099 3099 3099 3099 3100 3099 3100 3100 3101 3101 3101 3102 3103 3104 3105 3106 3108 3109 3111 3113 3114 3115 3116 3117 3118 3120 3121 3122 3122 3121 3121 3121 3121 3121 3122 3123 3124 3125 3127 3128 3128 3129 3130 3131 3129 3129 3129 3128 3128 3129 3129 3128 3128 3129 3130 3130 3131 3131 3132 3133
3105 3104 3104 3103 3103 3103 3103 3102 3102 3102 3102 3102 3102 3101 3101 3101 3101 3100 3100 3100 3100 3100 3100 3099 3099 3099 3099 3098 3098 3098 3098 3098 3098 3098 3098 3099 3099 3099 3100 3100 3101 3102 3103 3105 3106 3108 3110 3111 3113 3114 3115 3116 3117 3119 3120 3121 3121 3120 3120 3120 3119 3120 3121 3122 3124 3125 3126 3127 3127 3128 3129 3130 3129 3128 3129 3127 3127 3128 3127 3127 3127 3128 3129 3130 3131 3131 3132 3133
3103 3103 3102 3102 3101 3101 3101 3101 3100 3100 3100 3100 3100 3100 3099 3099 3099 3099 3099 3098 3098 3098 3098 3098 3097 3097 3097 3097 3097 3096 3097 3097 3097 3096 3097 3097 3097 3097 3098 3098 3099 3100 3102 3103 3104 3106 3108 3109 3109 3110 3112 3114 3116 3117 3118 3119 3119 3119 3119 3118 3118 3120 3121 3122 3124 3125 3126 3126 3126 3127 3128 3128 3128 3128 3128 3127 3126 3127 3127 3126 3126 3127 3127 3129 3130 3131 3132 3133
3102 3101 3101 3100 3100 3099 3099 3099 3098 3098 3098 3098 3098 3098 3098 3097 3097 3097 3097 3097 3097 3097 3096 3096 3096 3096 3096 3096 3095 3095 3096 3096 3095 3095 3095 3095 3095 3096 3096 3097 3098 3099 3100 3101 3102 3104 3105 3106 3107 3108 3109 3111 3113 3115 3116 3117 3117 3118 3118 3117 3118 3121 3120 3121 3123 3124 3125 3126 3126 3127 3127 3127 3127 3127 3128 3127 3126 3126 3126 3126 3126 3126 3127 3128 3129 3130 3131 3132
3101 3100 3099 3099 3098 3098 3098 3097 3097 3097 3096 3096 3096 3096 3096 3096 3096 3096 3096 3096 3096 3095 3095 3095 3095 3094 3094 3094 3094 3094 3095 3095 3094 3094 3094 3094 3094 3094 3095 3096 3096 3097 3098 3099 3101 3102 3103 3104 3106 3107 3108 3109 3111 3112 3114 3115 3116 3116 3116 3116 3118 3120 3119 3120 3122 3123 3124 3124 3124 3125 3126 3126 3127 3127 3126 3126 3125 3124 3125 3125 3125 3125 3125 3127 3128 3129 3130 3131
3100 3099 3098 3098 3097 3096 3096 3096 3095 3095 3095 3095 3095 3095 3094 3094 3094 3094 3095 3094 3094 3094 3094 3094 3093 3093 3093 3093 3093 3094 3094 3094 3093 3093 3093 3093 3093 3093 3094 3094 3095 3096 3097 3098 3100 3101 3102 3103 3105 3106 3107 3109 3109 3110 3112 3114 3115 3115 3115 3116 3117 3118 3118 3119 3121 3121 3122 3123 3123 3123 3123 3124 3125 3126 3125 3124 3124 3123 3123 3124 3124 3123 3124 3126 3127 3128 3128 3130
3099 3098 3098 3097 3096 3095 3095 3094 3094 3094 3093 3093 3093 3093 3093 3093 3093 3093 3093 3093 3093 3092 3092 3092 3092 3092 3092 3092 3092 3093 3093 3092 3092 3092 3092 3092 3092 3092 3092 3093 3094 3095 3096 3097 3099 3100 3101 3102 3104 3106 3106 3107 3108 3110 3112 3113 3114 3114 3114 3115 3116 3117 3116 3117 3119 3120 3121 3122 3122 3121 3122 3123 3123 3124 3124 3122 3122 3123 3122 3123 3122 3122 3123 3125 3127 3127 3128 3129
3099 3098 3097 3096 3095 3094 3094 3093 3093 3092 3092 3092 3092 3092 3092 3092 3092 3092 3092 3092 3092 3091 3091 3091 3091 3091 3091 3091 3091 3091 3091 3091 3091 3091 3091 3091 3091 3091 3091 3092 3093 3094 3095 3096 3098 3099 3100 3102 3104 3105 3106 3107 3108 3109 3111 3112 3113 3113 3113 3114 3115 3116 3116 3116 3118 3119 3119 3120 3120 3120 3120 3121 3122 3122 3122 3120 3120 3121 3122 3121 3122 3121 3122 3124 3126 3127 3128 3129
3098 3097 3096 3095 3094 3094 3093 3092 3092 3091 3091 3091 3091 3091 3091 3091 3091 3091 3091 3091 3091 3091 3090 3090 3090 3090 3090 3090 3090 3090 3090 3090 3090 3090 3090 3090 3090 3090 3090 3091 3092 3093 3094 3095 3097 3098 3100 3103 3105 3106 3106 3107 3108 3109 3111 3111 3112 3112 3113 3113 3114 3114 3115 3115 3116 3117 3118 3118 3118 3118 3118 3120 3121 3121 3119 3117 3117 3120 3120 3120 3121 3121 3122 3124 3126 3127 3127 3128
3097 3096 3095 3094 3094 3093 3092 3091 3091 3090 3090 3090 3090 3090 3090 3090 3090 3090 3090 3090 3089 3090 3089 3089 3089 3089 3089 3089 3089 3089 3090 3090 3089 3089 3089 3089 3089 3089 3089 3090 3091 3092 3093 3094 3096 3099 3101 3104 3105 3106 3105 3106 3107 3108 3110 3110 3110 3111 3112 3112 3112 3112 3113 3113 3114 3115 3116 3116 3116 3116 3116 3118 3119 3118 3116 3115 3116 3118 3119 3120 3121 3121 3122 3124 3125 3126 3127 3128
3096 3095 3094 3093 3093 3092 3091 3090 3090 3089 3089 3089 3089 3089 3089 3089 3089 3089 3089 3088 3088 3088 3088 3088 3088 3088 3088 3088 3088 3088 3089 3089 3088 3088 3087 3087 3088 3088 3088 3089 3090 3091 3093 3094 3097 3099 3102 3103 3104 3104 3104 3105 3105 3107 3108 3109 3109 3109 3110 3110 3110 3110 3110 3111 3112 3113 3113 3113 3114 3115 3114 3115 3116 3116 3114 3114 3115 3117 3119 3120 3121 3121 3122 3123 3125 3125 3126 3127
3094 3094 3093 3092 3092 3091 3090 3090 3089 3088 3088 3088 3088 3087 3087 3088 3088 3088 3088 3087 3087 3087 3087 3087 3087 3087 3087 3087 3087 3087 3087 3087 3087 3087 3087 3087 3087 3087 3088 3088 3090 3091 3093 3095 3097 3099 3100 3101 3102 3102 3103 3103 3104 3105 3106 3107 3108 3108 3109 3108 3108 3108 3108 3109 3110 3111 3111 3112 3113 3114 3113 3112 3114 3115 3113 3113 3115 3117 3119 3120 3120 3121 3121 3123 3124 3124 3125 3126
3093 3093 3092 3092 3091 3090 3090 3089 3088 3088 3087 3087 3086 3086 3086 3086 3086 3086 3086 3086 3086 3086 3086 3086 3086 3086 3086 3086 3086 3086 3086 3086 3086 3086 3086 3086 3087 3087 3087 3088 3090 3091 3093 3094 3096 3098 3099 3099 3100 3100 3102 3102 3103 3104 3105 3106 3107 3107 3107 3106 3106 3106 3105 3106 3108 3109 3110 3110 3112 3114 3112 3110 3112 3114 3112 3112 3114 3116 3118 3119 3120 3120 3120 3122 3123 3124 3124 3125
3093 3092 3091 3091 3090 3089 3089 3088 3087 3087 3086 3086 3085 3085 3085 3085 3085 3085 3085 3085 3085 3085 3085 3085 3085 3086 3086 3086 3086 3086 3086 3086 3086 3086 3086 3086 3087 3087 3087 3088 3090 3091 3092 3094 3095 3097 3098 3098 3098 3099 3100 3102 3102 3103 3104 3105 3105 3106 3106 3105 3106 3106 3104 3104 3107 3107 3108 3109 3111 3113 3112 3109 3110 3113 3111 3111 3113 3114 3117 3118 3119 3120 3120 3121 3122 3123 3124 3124
3092 3091 3091 3090 3089 3089 3088 3087 3087 3086 3085 3085 3084 3084 3084 3084 3084 3084 3084 3084 3084 3084 3084 3084 3085 3085 3085 3085 3086 3085 3085 3086 3086 3085 3085 3086 3087 3087 3088 3088 3090 3091 3092 3094 3095 3096 3096 3097 3097 3098 3100 3101 3102 3103 3104 3104 3104 3104 3104 3104 3106 3105 3103 3103 3104 3105 3106 3108 3110 3112 3110 3107 3109 3111 3110 3110 3111 3112 3116 3117 3118 3119 3120 3121 3121 3122 3123 3123
3091 3091 3090 3089 3089 3088 3087 3086 3086 3085 3084 3084 3083 3082 3082 3082 3082 3083 3083 3083 3083 3083 3083 3084 3084 3085 3085 3085 3085 3085 3085 3085 3085 3085 3085 3086 3087 3087 3088 3089 3090 3092 3093 3094 3095 3095 3096 3097 3097 3098 3099 3101 3102 3103 3103 3103 3103 3104 3104 3104 3105 3105 3104 3102 3102 3104 3105 3107 3109 3109 3108 3107 3108 3109 3109 3109 3109 3111 3115 3117 3118 3119 3120 3120 3121 3121 3122 3122
3091 3090 3089 3089 3088 3087 3086 3085 3084 3084 3084 3083 3082 3082 3081 3081 3081 3081 3081 3082 3082 3081 3082 3083 3083 3084 3084 3084 3084 3085 3085 3085 3085 3085 3086 3087 3087 3088 3088 3090 3091 3092 3094 3094 3095 3096 3096 3097 3097 3098 3099 3100 3101 3102 3102 3102 3102 3103 3104 3105 3105 3105 3105 3102 3100 3101 3104 3106 3106 3106 3106 3107 3108 3108 3108 3107 3108 3111 3114 3115 3117 3118 3119 3120 3120 3121 3121 3122
3090 3089 3089 3088 3087 3087 3086 3085 3084 3083 3083 3082 3082 3081 3080 3080 3080 3080 3080 3080 3080 3080 3081 3082 3082 3083 3083 3083 3083 3084 3085 3085 3085 3085 3087 3087 3088 3088 3087 3089 3091 3092 3093 3094 3095 3096 3096 3096 3097 3097 3098 3099 3100 3101 3101 3101 3102 3103 3105 3105 3105 3104 3104 3103 3100 3099 3101 3102 3104 3104 3105 3107 3108 3107 3106 3106 3108 3111 3113 3114 3115 3116 3117 3118 3119 3120 3120 3121
3089 3089 3088 3087 3087 3086 3085 3084 3083 3082 3082 3082 3081 3081 3080 3079 3079 3078 3078 3078 3078 3079 3079 3080 3080 3081 3083 3082 3083 3084 3085 3085 3085 3086 3087 3087 3088 3087 3087 3088 3090 3092 3093 3094 3095 3095 3095 3095 3096 3096 3097 3098 3099 3100 3100 3101 3102 3103 3104 3104 3104 3103 3102 3101 3098 3096 3097 3099 3101 3102 3102 3106 3109 3107 3106 3107 3109 3110 3112 3112 3113 3114 3116 3116 3118 3119 3120 3121
3089 3088 3087 3086 3086 3085 3085 3084 3083 3082 3082 3081 3081 3080 3080 3080 3079 3078 3077 3077 3077 3077 3077 3078 3079 3080 3081 3081 3081 3083 3084 3085 3086 3086 3086 3087 3087 3088 3088 3088 3089 3091 3092 3093 3094 3095 3095 3095 3095 3095 3096 3098 3099 3100 3101 3102 3102 3102 3103 3103 3103 3102 3101 3099 3096 3094 3095 3097 3099 3100 3101 3105 3108 3108 3107 3107 3108 3109 3110 3111 3112 3113 3114 3115 3116 3117 3119 3120
3088 3087 3086 3085 3085 3084 3084 3083 3082 3082 3081 3081 3081 3080 3080 3079 3079 3077 3076 3076 3075 3075 3075 3076 3077 3078 3079 3079 3080 3081 3082 3084 3085 3086 3086 3086 3087 3087 3088 3088 3089 3090 3091 3092 3093 3094 3094 3094 3094 3095 3097 3099 3100 3100 3101 3101 3101 3101 3102 3102 3102 3101 3100 3098 3096 3094 3094 3096 3098 3100 3102 3105 3107 3107 3107 3108 3108 3109 3109 3110 3111 3112 3113 3114 3115 3116 3117 3119
3087 3086 3085 3085 3084 3083 3083 3083 3082 3081 3081 3081 3080 3080 3080 3079 3078 3076 3075 3074 3074 3074 3073 3074 3076 3077 3078 3078 3079 3079 3079 3081 3084 3085 3086 3086 3086 3087 3088 3088 3089 3089 3090 3092 3093 3093 3094 3093 3093 3095 3098 3099 3099 3100 3100 3101 3101 3101 3101 3101 3101 3100 3099 3098 3096 3096 3096 3098 3099 3100 3102 3104 3105 3107 3107 3108 3108 3108 3109 3109 3110 3110 3111 3112 3113 3114 3115 3117
3086 3085 3084 3084 3083 3083 3082 3082 3081 3081 3081 3081 3080 3080 3079 3078 3077 3076 3075 3073 3072 3072 3071 3073 3074 3076 3077 3077 3078 3078 3078 3079 3082 3084 3085 3085 3086 3087 3087 3088 3089 3090 3090 3091 3092 3093 3093 3092 3094 3095 3096 3097 3098 3099 3100 3100 3101 3100 3100 3100 3100 3100 3100 3098 3096 3096 3097 3099 3100 3101 3102 3102 3104 3105 3106 3107 3106 3106 3107 3109 3110 3110 3110 3111 3112 3113 3113 3115
3084 3084 3083 3083 3082 3082 3081 3081 3081 3080 3080 3080 3079 3078 3077 3077 3076 3076 3075 3072 3071 3071 3070 3071 3073 3074 3076 3077 3077 3078 3078 3079 3081 3083 3084 3085 3085 3086 3087 3088 3088 3089 3090 3091 3092 3092 3091 3092 3094 3094 3095 3096 3097 3098 3099 3099 3100 3099 3099 3098 3099 3100 3100 3099 3097 3097 3097 3098 3099 3100 3101 3101 3102 3104 3104 3105 3105 3105 3106 3108 3109 3109 3110 3110 3110 3111 3112 3113
3083 3083 3082 3082 3081 3081 3081 3080 3080 3080 3079 3078 3077 3077 3076 3076 3076 3075 3074 3072 3070 3070 3069 3070 3072 3074 3075 3076 3076 3077 3079 3079 3080 3082 3084 3084 3085 3086 3087 3088 3088 3088 3089 3091 3092 3092 3090 3092 3093 3093 3094 3095 3096 3097 3098 3098 3098 3098 3098 3098 3098 3100 3100 3100 3099 3098 3099 3099 3099 3100 3100 3100 3100 3101 3103 3103 3103 3104 3105 3106 3107 3107 3108 3109 3109 3110 3110 3112
3082 3081 3081 3081 3080 3080 3080 3079 3079 3079 3078 3077 3076 3076 3076 3076 3075 3075 3073 3072 3069 3068 3069 3069 3071 3073 3074 3075 3075 3077 3078 3078 3079 3081 3083 3084 3085 3085 3086 3087 3087 3088 3089 3091 3092 3091 3090 3091 3092 3092 3094 3094 3094 3096 3096 3097 3097 3097 3097 3097 3098 3099 3099 3099 3098 3098 3099 3099 3099 3100 3100 3100 3099 3100 3101 3102 3103 3103 3104 3104 3105 3105 3106 3106 3108 3108 3109 3110
3080 3079 3079 3079 3079 3079 3079 3078 3078 3078 3078 3077 3075 3076 3076 3075 3075 3075 3074 3073 3070 3067 3068 3069 3070 3072 3072 3074 3075 3076 3077 3076 3077 3080 3081 3082 3083 3085 3086 3086 3086 3087 3089 3091 3091 3090 3089 3089 3090 3091 3093 3093 3093 3094 3094 3095 3095 3095 3096 3096 3097 3097 3098 3098 3097 3097 3098 3098 3098 3099 3099 3099 3099 3099 3100 3101 3102 3102 3102 3103 3103 3104 3104 3105 3107 3107 3108 3109
3078 3077 3077 3077 3077 3077 3077 3077 3077 3077 3076 3075 3074 3075 3075 3075 3075 3075 3075 3074 3070 3067 3068 3068 3069 3070 3072 3074 3075 3075 3076 3076 3077 3078 3079 3081 3082 3084 3084 3085 3086 3087 3088 3089 3088 3088 3089 3089 3089 3090 3091 3092 3092 3093 3093 3093 3093 3093 3095 3095 3095 3096 3096 3096 3097 3096 3097 3097 3097 3098 3098 3098 3098 3099 3100 3100 3101 3101 3101 3101 3101 3101 3102 3103 3105 3106 3107 3108
3075 3075 3075 3075 3075 3076 3076 3075 3075 3075 3075 3074 3074 3074 3074 3075 3075 3075 3076 3074 3069 3067 3068 3068 3069 3070 3071 3073 3073 3074 3075 3076 3077 3078 3079 3080 3081 3082 3083 3084 3086 3086 3087 3088 3087 3087 3088 3088 3089 3090 3090 3091 3091 3092 3092 3092 3091 3092 3093 3093 3093 3094 3094 3095 3095 3095 3096 3097 3097 3097 3098 3098 3098 3097 3098 3099 3099 3099 3099 3098 3098 3098 3100 3102 3103 3105 3106 3107
3073 3072 3072 3073 3073 3073 3073 3073 3074 3074 3073 3073 3074 3073 3073 3075 3075 3075 3076 3073 3068 3067 3068 3068 3069 3070 3071 3072 3072 3073 3074 3075 3076 3077 3077 3078 3079 3081 3082 3083 3085 3085 3086 3086 3086 3086 3087 3087 3088 3088 3089 3089 3090 3090 3090 3090 3090 3090 3091 3091 3091 3092 3092 3092 3093 3094 3095 3097 3097 3097 3097 3098 3098 3097 3097 3098 3098 3098 3098 3097 3096 3097 3099 3101 3102 3104 3105 3106
3070 3070 3070 3070 3070 3071 3071 3071 3072 3072 3072 3072 3073 3073 3073 3074 3074 3075 3074 3070 3067 3067 3067 3067 3069 3069 3070 3071 3071 3072 3073 3074 3075 3076 3077 3077 3078 3080 3081 3082 3083 3083 3083 3084 3084 3085 3085 3086 3086 3087 3087 3087 3088 3089 3089 3089 3089 3090 3089 3089 3090 3090 3090 3091 3092 3093 3095 3097 3096 3096 3096 3097 3097 3096 3096 3097 3097 3097 3096 3095 3096 3098 3099 3100 3101 3102 3104 3105
3067 3066 3067 3067 3067 3068 3069 3069 3069 3070 3070 3070 3070 3071 3072 3072 3072 3071 3069 3068 3067 3067 3066 3067 3069 3069 3069 3070 3070 3071 3072 3072 3074 3075 3076 3076 3077 3078 3079 3080 3081 3081 3082 3082 3083 3084 3084 3084 3085 3085 3085 3086 3087 3087 3088 3088 3088 3089 3089 3089 3090 3091 3092 3093 3094 3094 3095 3095 3095 3096 3096 3096 3095 3096 3096 3096 3096 3096 3095 3094 3095 3097 3098 3099 3099 3100 3102 3104
3064 3064 3064 3064 3064 3066 3067 3066 3066 3067 3068 3068 3069 3069 3070 3071 3069 3066 3066 3067 3067 3066 3066 3067 3067 3068 3069 3069 3069 3070 3071 3071 3072 3074 3075 3075 3076 3077 3078 3079 3079 3080 3080 3081 3082 3083 3083 3083 3083 3083 3084 3085 3086 3086 3086 3087 3087 3088 3089 3088 3089 3090 3094 3096 3096 3096 3095 3094 3094 3095 3095 3095 3095 3095 3095 3095 3095 3095 3094 3094 3095 3097 3098 3099 3099 3100 3102 3103
3061 3060 3061 3061 3062 3063 3064 3064 3064 3065 3066 3066 3067 3067 3068 3067 3065 3064 3065 3066 3065 3066 3067 3067 3067 3067 3067 3068 3068 3069 3069 3070 3071 3073 3074 3074 3075 3075 3076 3077 3078 3078 3079 3080 3081 3081 3082 3082 3082 3082 3082 3083 3084 3085 3085 3086 3086 3087 3087 3087 3087 3088 3091 3094 3094 3094 3094 3093 3093 3094 3094 3094 3094 3094 3095 3094 3094 3094 3093 3094 3095 3096 3097 3099 3099 3101 3102 3102
3057 3057 3058 3058 3059 3061 3061 3061 3061 3062 3063 3064 3065 3065 3064 3063 3063 3063 3063 3064 3065 3066 3066 3067 3067 3066 3065 3066 3067 3068 3068 3068 3070 3071 3072 3072 3073 3074 3075 3075 3076 3077 3077 3079 3079 3080 3080 3080 3080 3080 3081 3081 3082 3083 3084 3084 3085 3085 3085 3086 3086 3086 3087 3089 3091 3091 3092 3093 3093 3093 3093 3093 3094 3094 3095 3095 3095 3095 3094 3095 3096 3096 3097 3098 3099 3101 3102 3102
3054 3054 3054 3055 3057 3058 3058 3058 3058 3059 3060 3061 3062 3061 3060 3060 3061 3062 3062 3063 3064 3065 3065 3064 3064 3063 3064 3064 3064 3065 3067 3067 3068 3069 3070 3070 3072 3072 3073 3073 3074 3075 3075 3076 3077 3078 3079 3079 3079 3079 3080 3081 3081 3082 3083 3083 3083 3084 3084 3085 3085 3085 3086 3087 3089 3090 3091 3092 3092 3092 3092 3092 3093 3094 3094 3095 3095 3095 3095 3096 3096 3096 3097 3098 3100 3100 3102 3103
3051 3051 3051 3053 3054 3054 3054 3055 3055 3056 3057 3058 3058 3057 3058 3059 3060 3061 3061 3062 3063 3064 3064 3064 3062 3062 3062 3063 3063 3063 3064 3065 3066 3067 3068 3070 3070 3070 3071 3072 3072 3073 3073 3074 3075 3076 3077 3078 3078 3079 3079 3079 3080 3081 3082 3082 3083 3083 3084 3085 3085 3085 3086 3086 3088 3090 3092 3093 3092 3090 3091 3092 3092 3093 3094 3095 3095 3094 3095 3096 3096 3096 3097 3098 3099 3100 3101 3102
3048 3048 3049 3050 3051 3050 3051 3052 3053 3054 3055 3055 3055 3055 3056 3057 3058 3059 3060 3061 3062 3063 3063 3063 3062 3062 3061 3061 3062 3062 3063 3064 3065 3066 3067 3069 3069 3069 3070 3070 3070 3070 3071 3073 3073 3074 3076 3077 3077 3078 3079 3079 3080 3081 3081 3082 3083 3083 3083 3084 3083 3084 3084 3085 3087 3089 3091 3093 3091 3089 3090 3092 3093 3093 3093 3094 3095 3095 3095 3096 3097 3097 3097 3098 3099 3100 3101 3102
3045 3046 3046 3046 3047 3047 3048 3049 3050 3052 3052 3052 3053 3053 3054 3055 3056 3058 3059 3060 3061 3062 3061 3061 3062 3061 3060 3060 3061 3062 3062 3064 3065 3066 3066 3067 3067 3068 3069 3069 3069 3069 3070 3072 3072 3072 3073 3074 3075 3076 3078 3079 3079 3079 3080 3080 3080 3081 3082 3082 3082 3082 3083 3084 3085 3086 3088 3091 3091 3090 3091 3092 3093 3093 3093 3093 3094 3094 3094 3095 3096 3096 3097 3098 3099 3100 3101 3102
3043 3044 3044 3043 3043 3045 3046 3047 3048 3049 3050 3050 3051 3052 3053 3054 3055 3056 3058 3059 3060 3060 3060 3060 3060 3060 3060 3060 3060 3061 3062 3063 3064 3065 3065 3065 3066 3067 3067 3067 3068 3069 3070 3070 3070 3070 3071 3072 3073 3075 3077 3078 3079 3079 3079 3079 3079 3079 3080 3080 3081 3081 3082 3083 3084 3085 3086 3089 3091 3091 3093 3094 3093 3093 3093 3092 3093 3093 3093 3093 3094 3095 3096 3097 3098 3099 3100 3100
3041 3042 3043 3042 3042 3042 3044 3045 3046 3047 3048 3049 3050 3051 3052 3053 3053 3054 3056 3057 3058 3058 3058 3059 3059 3059 3058 3059 3059 3060 3061 3062 3062 3062 3063 3063 3064 3065 3065 3065 3066 3067 3068 3069 3069 3069 3069 3070 3071 3073 3075 3076 3078 3078 3078 3078 3079 3080 3079 3079 3079 3080 3080 3081 3083 3084 3085 3086 3088 3090 3092 3094 3094 3093 3092 3092 3092 3092 3092 3092 3093 3095 3096 3097 3098 3099 3099 3099
3039 3041 3041 3041 3041 3041 3042 3044 3045 3046 3047 3048 3049 3050 3051 3051 3051 3052 3054 3055 3056 3056 3057 3057 3057 3057 3057 3057 3057 3058 3059 3060 3060 3060 3061 3062 3062 3063 3064 3064 3064 3065 3066 3067 3067 3068 3068 3069 3070 3072 3073 3074 3076 3077 3077 3078 3079 3079 3078 3078 3079 3079 3079 3080 3081 3083 3084 3085 3086 3087 3090 3092 3092 3091 3091 3091 3091 3091 3092 3092 3093 3094 3095 3096 3097 3098 3098 3098
3038 3039 3039 3039 3040 3041 3042 3043 3043 3044 3046 3047 3048 3049 3049 3050 3050 3050 3052 3053 3053 3054 3055 3055 3054 3054 3055 3054 3055 3056 3057 3058 3059 3059 3059 3060 3060 3062 3063 3064 3064 3065 3066 3065 3066 3067 3068 3069 3069 3070 3071 3072 3074 3076 3077 3077 3078 3078 3078 3078 3078 3079 3079 3079 3079 3080 3082 3084 3085 3086 3089 3091 3091 3090 3089 3090 3090 3090 3091 3091 3092 3092 3093 3094 3096 3096 3097 3097
3037 3038 3038 3038 3039 3039 3040 3042 3042 3043 3045 3046 3046 3047 3047 3048 3048 3049 3050 3051 3051 3052 3052 3052 3052 3052 3053 3053 3053 3054 3055 3056 3057 3057 3057 3058 3059 3060 3062 3064 3064 3065 3065 3065 3066 3067 3067 3068 3069 3070 3071 3071 3072 3074 3075 3076 3076 3077 3078 3079 3079 3079 3079 3079 3079 3079 3080 3082 3083 3084 3087 3090 3090 3089 3089 3088 3088 3089 3089 3090 3090 3090 3091 3092 3093 3094 3095 3096
3036 3037 3037 3037 3037 3038 3039 3040 3041 3042 3043 3044 3044 3045 3046 3046 3047 3048 3050 3049 3048 3048 3048 3048 3049 3050 3051 3051 3052 3053 3054 3054 3055 3055 3055 3056 3058 3060 3062 3063 3063 3063 3065 3065 3066 3067 3067 3068 3068 3070 3071 3073 3073 3074 3075 3074 3075 3076 3077 3078 3079 3079 3079 3079 3079 3079 3079 3081 3082 3083 3085 3087 3089 3088 3087 3086 3087 3087 3088 3089 3089 3089 3090 3091 3091 3092 3093 3093
3036 3036 3036 3036 3037 3037 3038 3038 3039 3040 3041 3042 3043 3044 3044 3044 3045 3047 3048 3047 3047 3046 3045 3045 3046 3048 3049 3049 3050 3052 3052 3053 3053 3054 3055 3055 3057 3058 3060 3061 3061 3062 3064 3065 3065 3066 3067 3067 3068 3069 3071 3072 3073 3074 3074 3074 3075 3076 3076 3077 3078 3078 3078 3078 3078 3078 3079 3080 3082 3083 3084 3085 3086 3086 3085 3086 3086 3086 3087 3088 3088 3089 3089 3089 3090 3091 3091 3092
3036 3036 3036 3036 3036 3036 3036 3037 3038 3040 3041 3041 3041 3042 3043 3042 3043 3044 3044 3044 3044 3044 3043 3043 3045 3046 3047 3048 3049 3049 3050 3051 3052 3053 3054 3055 3055 3057 3059 3060 3060 3062 3063 3064 3064 3066 3066 3066 3067 3069 3070 3071 3072 3073 3073 3074 3074 3075 3075 3075 3076 3077 3077 3077 3077 3077 3078 3079 3081 3083 3083 3084 3084 3084 3084 3084 3085 3086 3086 3086 3087 3088 3088 3088 3088 3089 3089 3090
3036 3037 3037 3036 3036 3035 3034 3035 3037 3039 3040 3040 3040 3040 3041 3040 3040 3041 3041 3041 3041 3041 3041 3043 3044 3045 3045 3046 3048 3048 3049 3050 3051 3053 3054 3055 3055 3056 3058 3059 3060 3061 3061 3062 3063 3064 3064 3065 3066 3067 3068 3069 3070 3071 3072 3072 3073 3074 3074 3074 3075 3075 3076 3076 3076 3076 3077 3078 3080 3081 3082 3082 3083 3083 3082 3083 3083 3084 3084 3085 3085 3086 3086 3087 3087 3087 3087 3087
3037 3037 3037 3037 3036 3035 3035 3036 3037 3038 3039 3038 3039 3040 3039 3038 3038 3039 3039 3039 3039 3040 3041 3042 3043 3044 3044 3045 3047 3048 3048 3049 3050 3052 3053 3054 3055 3056 3057 3058 3058 3059 3060 3060 3061 3062 3062 3063 3064 3065 3066 3067 3068 3069 3070 3071 3072 3072 3072 3073 3074 3074 3074 3074 3075 3075 3076 3077 3079 3079 3080 3081 3081 3081 3081 3081 3081 3082 3083 3083 3083 3083 3084 3084 3084 3085 3085 3085
3037 3037 3038 3038 3036 3036 3037 3037 3037 3038 3038 3037 3038 3039 3039 3039 3039 3038 3038 3038 3039 3040 3040 3042 3043 3044 3044 3045 3046 3047 3047 3049 3050 3051 3052 3053 3054 3055 3056 3057 3057 3058 3059 3059 3060 3060 3061 3062 3062 3063 3065 3066 3067 3068 3068 3069 3070 3070 3071 3072 3073 3073 3073 3074 3074 3075 3075 3076 3077 3078 3078 3079 3080 3080 3079 3079 3080 3080 3081 3081 3081 3081 3081 3082 3083 3083 3083 3084
3038 3038 3039 3038 3038 3039 3039 3038 3038 3038 3037 3037 3038 3039 3039 3039 3039 3039 3038 3038 3039 3039 3040 3042 3043 3044 3044 3045 3046 3046 3047 3049 3050 3050 3051 3052 3053 3054 3055 3056 3057 3058 3058 3058 3059 3059 3060 3061 3061 3062 3064 3065 3066 3066 3067 3068 3068 3069 3070 3071 3071 3071 3071 3072 3072 3073 3074 3074 3076 3077 3077 3078 3078 3078 3078 3078 3078 3078 3078 3079 3079 3079 3080 3080 3081 3081 3082 3082
3040 3040 3040 3040 3040 3041 3041 3040 3039 3039 3039 3039 3039 3039 3039 3040 3040 3040 3039 3039 3040 3040 3041 3042 3043 3043 3044 3045 3046 3046 3047 3048 3049 3049 3050 3051 3051 3052 3054 3055 3056 3057 3057 3057 3058 3059 3059 3060 3060 3061 3062 3063 3064 3065 3066 3067 3068 3069 3070 3070 3070 3070 3071 3071 3071 3072 3072 3073 3074 3075 3076 3076 3076 3076 3077 3077 3076 3076 3076 3077 3077 3078 3078 3078 3078 3079 3079 3080